DateTimeUTC,F1_A11,F1_S11,BsB_S11,BsG_S11,BsR_S11,BbsB_S11,BbsG_S11,BbsR_S11,BaB_A11,BaG_A11,BaR_A11,Tu_S11,T_S11,Uu_S11,U_S11,P_S11,T1_A11
2021-05-31T09:00:00Z,00000200,20000000,,,,,,,0000.26,-000.15,-000.39,17.0,24.0,03.7,02.4,0657.5,31.0
2021-05-31T09:01:00Z,00000200,20000000,,,,,,,-000.26,0000.10,0000.18,17.0,24.0,03.7,02.4,0657.5,31.0
2021-05-31T09:02:00Z,00000200,20000000,,,,,,,0000.09,-000.12,-000.29,17.0,24.0,03.7,02.4,0657.5,31.0
2021-05-31T09:03:00Z,00000200,60000000,,,,,,,0000.28,0000.34,0000.54,17.0,24.0,03.7,02.4,0657.5,30.9
2021-05-31T09:04:00Z,00000200,40000000,0000.53,0000.58,0000.10,0000.55,0000.07,0000.05,0000.08,-000.04,-000.16,17.2,23.8,03.9,02.6,0658.4,31.0
2021-05-31T09:05:00Z,00000200,00000000,0000.44,0000.46,0000.17,0000.19,0000.16,0000.11,-000.10,-000.09,0000.04,17.2,23.8,03.8,02.6,0658.5,31.0
2021-05-31T09:06:00Z,00000200,00000000,0000.63,0000.85,0000.40,-000.07,0000.18,0000.12,0000.31,-000.11,0000.04,17.2,23.8,03.9,02.6,0658.5,30.9
2021-05-31T09:07:00Z,00000200,00000000,0000.53,0000.78,0000.40,0000.29,0000.11,0000.15,-000.42,0000.29,0000.18,17.2,23.8,03.9,02.6,0658.5,30.9
2021-05-31T09:08:00Z,00000200,00000000,0000.59,0000.54,0000.12,-000.02,-000.03,-000.01,0000.33,0000.08,-000.20,17.2,23.7,04.0,02.7,0658.5,31.0
2021-05-31T09:09:00Z,00000200,00000000,0000.63,0000.39,0000.42,0000.76,0000.14,0000.01,0000.30,0000.13,0000.53,17.2,23.8,04.0,02.7,0658.5,30.9
2021-05-31T09:10:00Z,00000200,00000000,0000.17,0000.37,0000.11,-000.02,0000.15,-000.22,0000.16,0000.27,-000.25,17.2,23.8,04.0,02.7,0658.5,31.0
2021-05-31T09:11:00Z,00000200,00000000,0000.84,0000.53,0000.05,-000.47,0000.25,-000.06,0000.29,0000.10,0000.35,17.3,23.8,04.0,02.7,0658.5,30.9
2021-05-31T09:12:00Z,00000200,00000000,0000.64,0000.60,0000.29,0000.08,0000.16,0000.04,-000.06,0000.46,0000.03,17.3,23.8,04.2,02.8,0658.5,31.0
2021-05-31T09:13:00Z,00000200,00000000,0000.83,0000.35,0000.48,0000.07,0000.11,0000.05,0000.21,0000.01,0000.42,17.3,23.7,04.2,02.8,0658.5,31.0
2021-05-31T09:14:00Z,00000200,00000000,0000.94,0000.71,0000.26,0000.55,0000.18,-000.27,0000.21,0000.04,0000.07,17.3,23.7,04.2,02.8,0658.5,30.9
2021-05-31T09:15:00Z,00000200,00000000,0000.94,0000.70,0000.28,0000.61,0000.16,0000.04,-000.17,0000.04,-000.07,17.3,23.7,04.2,02.8,0658.5,31.0
2021-05-31T09:16:00Z,00000200,00000000,0000.89,0000.63,0000.33,0000.44,0000.28,0000.21,0000.53,0000.37,0000.39,17.3,23.7,04.1,02.8,0658.5,31.0
2021-05-31T09:17:00Z,00000200,00000000,0000.21,0000.74,0000.12,0000.07,0000.31,-000.08,-000.16,0000.09,0000.04,17.3,23.7,04.2,02.8,0658.5,31.0
2021-05-31T09:18:00Z,00000200,00000000,0000.50,0000.33,0000.34,0000.30,0000.20,-000.00,0000.00,-000.37,-000.22,17.3,23.7,04.1,02.8,0658.5,31.0
2021-05-31T09:19:00Z,00000200,00000000,0000.50,0000.58,0000.19,0000.17,0000.31,-000.01,-000.17,0000.42,0000.12,17.3,23.7,04.0,02.7,0658.5,31.0
2021-05-31T09:20:00Z,00000200,00000000,0000.47,0000.78,0000.12,-000.38,0000.18,-000.13,0000.22,-000.34,-000.06,17.3,23.7,04.0,02.7,0658.5,31.0
2021-05-31T09:21:00Z,00000200,00000000,-000.34,0000.54,0000.55,0000.47,0000.09,-000.09,-000.14,0000.15,0000.12,17.4,23.8,03.9,02.6,0658.5,31.0
2021-05-31T09:22:00Z,00000200,00000000,0000.68,0000.63,0000.27,0000.49,0000.44,-000.03,-000.16,-000.63,-000.39,17.4,23.8,03.8,02.6,0658.5,31.0
2021-05-31T09:23:00Z,00000200,00000000,0001.05,0000.59,0000.29,0000.37,0000.51,0000.05,0000.30,0000.30,0000.07,17.4,23.8,03.8,02.5,0658.5,31.0
2021-05-31T09:24:00Z,00000200,00000000,0000.94,0000.66,-000.01,0000.28,0000.35,-000.01,-000.43,0000.06,0000.08,17.5,23.8,03.6,02.4,0658.5,31.0
2021-05-31T09:25:00Z,00000200,00000000,0001.34,0000.71,0000.12,0000.38,0000.43,0000.09,0000.00,-000.30,-000.19,17.5,23.8,03.5,02.4,0658.5,31.0
2021-05-31T09:26:00Z,00000200,00000000,0000.50,0000.55,0000.03,0000.43,0000.25,-000.18,0000.01,0000.05,0000.10,17.5,23.8,03.5,02.3,0658.4,31.0
2021-05-31T09:27:00Z,00000200,00000000,0000.47,0000.60,0000.09,0000.29,0000.16,0000.26,-000.04,0000.04,0000.38,17.5,23.8,03.4,02.3,0658.5,31.0
2021-05-31T09:28:00Z,00000200,00000000,0000.70,0000.41,-000.03,0000.46,0000.17,-000.01,0000.24,0000.23,-000.54,17.5,23.8,03.4,02.3,0658.5,31.0
2021-05-31T09:29:00Z,00000200,00000000,0000.50,0000.38,0000.52,0000.47,0000.54,0000.09,-000.22,-000.15,0000.25,17.5,23.8,03.3,02.2,0658.4,31.0
2021-05-31T09:30:00Z,00000200,00000000,0001.45,0000.52,0000.53,0000.14,0000.04,-000.00,0000.05,-000.08,-000.11,17.5,23.8,03.2,02.2,0658.4,31.0
2021-05-31T09:31:00Z,00000200,00000000,0000.55,0000.57,0000.28,0000.18,0000.18,-000.16,-000.15,-000.05,-000.04,17.5,23.8,03.2,02.1,0658.4,31.0
2021-05-31T09:32:00Z,00000200,00000000,0001.07,0000.67,0000.01,-000.20,0000.32,-000.12,0000.18,0000.18,0000.28,17.5,23.8,03.0,02.0,0658.4,31.0
2021-05-31T09:33:00Z,00000200,00000000,0000.69,0000.46,0000.28,0000.36,0000.08,0000.19,0000.02,-000.10,0000.02,17.5,23.8,03.0,02.1,0658.4,31.0
2021-05-31T09:34:00Z,00000200,00000000,0000.79,0000.36,0000.39,-000.07,0000.08,0000.11,0000.13,0000.07,-000.05,17.5,23.8,03.1,02.1,0658.4,31.0
2021-05-31T09:35:00Z,00000200,00000000,0001.45,0000.49,0000.35,-000.05,0000.31,0000.45,-000.04,-000.09,0000.06,17.5,23.8,03.1,02.1,0658.4,31.0
2021-05-31T09:36:00Z,00000200,00000000,0000.23,0000.66,0000.35,0000.23,-000.11,0000.00,0000.16,0000.07,0000.47,17.5,23.8,03.1,02.1,0658.4,31.0
2021-05-31T09:37:00Z,00000200,00000000,0000.59,0000.58,0000.20,0000.54,0000.18,0000.14,0000.19,0000.65,-000.00,17.5,23.8,03.0,02.1,0658.4,31.0
2021-05-31T09:38:00Z,00000200,00000000,0000.99,0000.64,0000.01,0000.24,0000.05,-000.14,0000.23,-000.27,-000.18,17.5,23.8,03.1,02.1,0658.4,31.0
2021-05-31T09:39:00Z,00000200,00000000,0000.63,0000.83,0000.25,0000.43,0000.08,0000.31,-000.06,0000.28,0000.13,17.5,23.8,03.1,02.1,0658.4,30.9
2021-05-31T09:40:00Z,00000200,00000000,0000.81,0000.52,-000.07,-000.02,0000.27,-000.01,0000.43,-000.04,0000.01,17.5,23.8,03.2,02.2,0658.4,31.0
2021-05-31T09:41:00Z,00000200,00000000,0000.76,0000.30,0000.39,0000.09,0000.10,0000.14,0000.10,0000.31,0000.14,17.5,23.8,03.2,02.2,0658.4,31.0
2021-05-31T09:42:00Z,00000200,00000000,0000.35,0000.81,0000.01,0000.61,0000.10,-000.17,-000.13,0000.32,0000.08,17.5,23.8,03.3,02.2,0658.4,31.0
2021-05-31T09:43:00Z,00000200,00000000,0000.79,0000.96,0000.18,0000.04,0000.27,0000.06,0000.36,-000.21,0000.02,17.5,23.8,03.4,02.3,0658.4,31.0
2021-05-31T09:44:00Z,00000200,00000000,0001.38,0000.43,0000.15,0000.12,-000.05,-000.11,-000.13,0000.49,0000.35,17.5,23.8,03.3,02.2,0658.4,31.0
2021-05-31T09:45:00Z,00000200,00000000,0000.33,0000.53,0000.27,0000.46,0000.36,0000.09,0000.42,0000.08,0000.29,17.5,23.8,03.3,02.2,0658.4,31.0
2021-05-31T09:46:00Z,00000200,00000000,0000.31,0000.86,0000.05,0000.54,0000.03,-000.19,-000.13,0000.12,0000.12,17.5,23.8,03.2,02.2,0658.4,31.0
2021-05-31T09:47:00Z,00000200,00000000,0000.95,0000.54,0000.42,-000.05,0000.29,-000.19,0000.02,-000.05,0000.02,17.5,23.8,03.3,02.2,0658.4,31.0
2021-05-31T09:48:00Z,00000200,00000000,0000.31,0000.54,0000.27,-000.10,0000.03,0000.08,0000.22,0000.06,-000.06,17.5,23.8,03.3,02.3,0658.4,31.0
2021-05-31T09:49:00Z,00000200,00000000,0000.81,0000.65,0000.33,-000.32,0000.18,-000.14,0000.10,0000.33,-000.04,17.6,23.8,03.4,02.3,0658.4,31.0
2021-05-31T09:50:00Z,00000200,00000000,0000.61,0000.55,0000.20,-000.16,0000.03,0000.29,-000.16,-000.52,0000.21,17.6,23.9,03.3,02.2,0658.4,31.0
2021-05-31T09:51:00Z,00000200,00000000,0000.72,0000.47,0000.28,-000.18,0000.25,0000.03,0000.26,0000.37,-000.07,17.6,23.9,03.3,02.2,0658.4,31.0
2021-05-31T09:52:00Z,00000200,00000000,0000.50,0000.90,0000.25,0000.63,0000.02,0000.14,0000.20,0000.34,0000.14,17.6,23.9,03.2,02.2,0658.4,31.0
2021-05-31T09:53:00Z,00000200,00000000,0001.20,0000.50,0000.30,0000.28,0000.30,0000.08,-000.07,-000.15,-000.15,17.6,23.9,03.2,02.2,0658.4,31.0
2021-05-31T09:54:00Z,00000200,00000000,0000.80,0000.95,0000.17,0000.39,0000.21,0000.30,-000.03,0000.11,0000.07,17.6,23.9,03.2,02.1,0658.4,30.9
2021-05-31T09:55:00Z,00000200,00000000,0001.20,0000.79,0000.08,0000.26,0000.12,-000.22,0000.33,-000.33,-000.12,17.6,23.9,03.3,02.2,0658.4,31.0
2021-05-31T09:56:00Z,00000200,00000000,0000.69,0000.55,-000.08,0000.46,0000.22,-000.21,0000.26,0000.67,0000.67,17.6,23.9,03.3,02.2,0658.4,31.0
2021-05-31T09:57:00Z,00000200,40000000,,,,,,,-000.06,0000.03,-000.14,17.6,23.9,03.1,02.1,0658.3,31.0
2021-05-31T09:58:00Z,00000200,60000000,,,,,,,0000.05,0000.00,-000.27,17.4,24.0,03.3,02.2,0657.4,31.0
2021-05-31T09:59:00Z,00000200,20000000,,,,,,,-000.39,-000.53,0000.20,17.4,24.1,03.2,02.1,0657.3,31.0
